ECMWFFLT1_500_spd_057.txt.gz
Wind_Speed
21 22 22 23 24 23 22 22 22 21 21 21 20 20 19 19 18 17 16 16 15 14 13 13 13 13 13 13 12 11 10 9 8 8 8 8 8 8 7 7 7 6 6 6 6 6 6 6 6 7 7 7 7 7 8 9 10 11 11 12 13 13 14
22 23 23 24 24 23 23 22 21 21 21 21 20 20 20 20 19 18 17 16 16 15 14 14 13 13 13 13 12 11 10 10 8 8 9 10 10 10 9 8 8 8 7 7 7 7 7 7 7 7 7 7 7 7 8 8 9 10 11 12 12 13 13
23 24 25 25 24 22 21 21 20 20 21 21 21 21 21 20 20 19 18 17 16 15 15 14 14 14 14 13 13 12 12 11 10 9 9 10 11 12 11 11 10 9 9 8 8 8 8 7 7 7 7 7 7 8 8 9 9 10 11 11 11 12 12
25 26 26 26 24 22 21 21 21 21 21 22 22 22 21 20 20 19 18 17 16 16 15 15 14 14 14 14 14 14 13 12 11 10 10 10 11 12 12 12 11 11 10 10 9 9 8 8 7 7 7 7 7 8 8 9 10 10 11 11 11 11 12
25 25 26 25 24 23 22 21 21 21 22 23 22 22 21 20 19 18 18 18 17 17 16 15 14 14 15 15 15 14 14 13 12 11 10 11 11 11 12 12 12 11 11 10 10 9 8 7 7 6 7 7 8 8 9 10 10 11 11 11 11 11 11
25 24 24 24 24 23 21 21 21 22 23 23 23 22 21 20 19 18 18 18 18 18 16 15 14 14 15 15 15 15 14 13 11 9 9 10 11 11 11 11 12 11 11 11 10 9 8 7 6 6 7 8 9 9 10 10 11 11 11 11 11 11 12
25 24 23 23 23 22 20 20 22 23 23 24 23 22 21 20 18 17 17 18 18 17 16 14 14 14 15 15 16 15 14 11 10 9 9 9 10 11 11 11 11 10 10 10 9 8 7 6 6 7 8 9 9 10 10 10 11 11 11 11 12 12 13
24 23 22 21 21 20 20 21 22 22 23 23 23 21 20 18 16 16 16 17 18 17 15 14 14 14 14 14 15 15 13 11 10 10 11 11 11 11 11 11 10 10 10 9 8 7 6 6 6 7 8 9 10 10 11 11 12 12 12 13 13 14 14
22 21 20 20 20 20 21 22 22 22 22 22 20 19 17 16 14 15 16 17 17 16 15 14 13 13 13 13 14 14 14 12 12 12 13 13 12 12 12 11 11 10 10 9 7 7 7 7 8 9 10 10 11 12 12 13 13 13 14 14 15 15 16
20 20 19 20 20 21 22 23 22 21 21 19 18 17 15 14 13 14 15 16 16 16 14 13 13 12 12 13 13 13 13 13 13 13 13 13 13 12 12 12 11 11 10 9 8 8 8 9 10 11 12 12 13 14 14 14 14 14 15 15 15 16 16
20 20 19 21 22 22 23 23 21 20 19 18 16 16 16 15 15 15 16 16 16 16 14 12 11 11 12 12 13 13 12 12 12 13 13 13 13 13 12 12 11 11 10 10 10 10 10 11 12 13 13 14 14 15 15 14 14 15 15 14 14 13 13
19 19 19 21 20 21 22 21 20 21 20 18 16 17 17 17 17 17 16 16 17 16 14 11 10 9 11 12 12 12 12 12 12 12 13 13 13 13 12 12 12 11 12 12 12 12 12 12 13 13 14 14 15 15 15 14 14 13 13 12 11 11 11
17 18 19 18 17 18 18 17 19 22 22 19 18 18 18 18 17 17 17 16 16 17 15 13 11 10 10 11 12 12 12 12 13 13 14 14 14 13 13 13 13 13 14 14 13 13 13 13 13 13 14 14 14 15 14 13 12 12 11 11 10 10 10
16 17 16 14 14 15 15 15 18 21 21 19 19 18 16 15 15 15 15 15 16 17 17 16 15 13 13 13 12 12 13 14 14 15 15 15 15 14 14 14 15 15 15 15 14 14 14 13 13 13 14 14 14 14 13 13 12 12 12 12 11 11 12
16 16 15 15 14 15 15 16 18 19 19 18 17 16 14 13 13 13 13 14 15 16 17 18 17 16 15 15 15 14 15 15 16 16 17 16 16 16 15 16 16 16 16 16 15 15 14 14 13 13 14 14 14 14 14 14 14 14 14 14 14 14 15
17 17 17 17 16 16 17 17 18 19 19 18 17 16 15 14 13 13 13 13 14 15 17 17 17 17 16 16 17 17 17 17 18 18 18 18 18 17 17 17 17 16 16 16 16 16 16 15 14 14 15 15 15 15 15 15 16 16 17 17 17 17 17
18 18 17 17 17 17 18 19 20 20 21 20 19 17 17 16 16 15 14 14 14 15 17 17 17 16 17 17 18 19 19 20 20 20 20 20 19 19 19 18 17 17 16 17 17 17 17 16 16 16 16 16 16 16 17 18 18 19 19 18 18 17 17
19 18 18 18 18 19 20 21 21 22 23 22 21 20 19 18 17 17 16 15 16 17 18 19 20 19 18 18 19 20 20 20 21 21 21 20 20 20 20 19 18 18 18 18 19 18 18 18 19 18 18 17 18 19 20 20 21 20 20 18 17 16 15
19 18 18 18 19 21 23 23 23 24 24 23 22 21 21 19 18 18 17 17 17 19 20 21 22 22 20 19 19 20 20 20 21 21 21 20 20 20 20 20 20 20 20 20 19 19 19 20 20 20 20 20 21 22 22 23 22 22 21 19 18 17 16
21 19 19 20 20 21 23 24 25 25 25 24 22 21 21 20 20 20 19 19 19 20 21 22 22 22 20 19 20 20 19 19 20 20 20 20 20 20 21 21 21 22 21 21 20 21 21 21 21 22 23 24 25 25 25 25 24 24 23 22 20 20 20
22 21 21 21 20 20 21 24 26 26 26 25 24 22 21 21 20 21 20 20 20 20 21 22 22 21 20 20 20 20 19 19 19 19 19 19 20 20 21 22 22 22 22 22 22 22 23 23 24 25 26 27 27 27 26 26 26 26 25 25 24 24 24
25 24 24 23 22 21 21 22 25 26 26 28 28 26 25 23 21 21 21 20 20 20 20 21 21 20 20 20 20 20 20 19 19 19 19 19 20 21 22 23 23 24 24 24 24 24 24 25 26 28 28 29 29 28 28 28 28 28 28 28 29 29 29
25 25 25 25 23 22 22 24 25 25 25 28 30 30 30 28 25 23 23 21 19 18 18 18 18 19 19 20 20 20 20 20 20 20 20 20 21 22 23 24 25 25 26 26 26 26 26 27 28 29 29 30 30 29 29 29 29 30 30 31 31 32 32
25 26 26 25 23 24 28 31 30 28 29 31 32 32 32 34 31 26 23 22 19 17 16 15 15 17 19 20 21 21 21 21 22 22 22 22 23 24 26 27 28 28 28 28 28 28 29 29 30 30 30 30 30 30 30 31 31 31 32 32 32 33 33
23 25 25 24 25 28 30 30 27 26 28 30 30 31 33 37 34 27 23 22 19 17 16 15 15 16 19 21 22 22 23 23 24 24 24 25 26 27 29 30 31 31 31 31 30 30 31 31 31 31 31 32 32 32 32 33 33 33 34 34 35 35 36
21 23 24 25 26 25 23 20 19 19 20 21 22 24 28 31 28 24 23 22 20 19 18 17 17 19 21 23 24 25 25 25 25 26 26 27 29 30 31 32 33 33 33 33 33 33 34 34 34 34 34 34 35 35 35 35 36 36 37 37 37 38 38
21 22 23 24 24 22 19 18 18 18 18 18 18 19 22 24 23 22 22 22 21 22 22 21 21 21 22 24 25 26 27 27 27 28 28 30 31 32 34 34 35 36 36 36 36 36 37 37 37 37 37 37 38 38 38 38 39 39 40 40 40 40 41
22 21 21 22 22 20 18 18 17 17 17 18 17 18 20 21 22 22 21 21 22 24 24 24 24 23 23 24 25 26 27 28 29 30 30 31 33 34 36 37 38 38 38 38 38 38 39 39 39 39 39 40 41 41 41 41 41 42 43 43 44 44 44
23 22 21 21 20 19 18 17 15 15 16 17 18 18 20 20 21 21 21 22 23 24 26 27 27 26 26 25 26 26 28 29 31 32 32 33 34 35 37 38 39 40 40 40 40 40 41 41 41 41 42 42 43 44 44 44 44 45 46 46 47 48 48
23 23 23 22 20 19 18 17 16 15 16 18 19 20 21 21 22 22 23 24 25 26 27 28 29 30 30 29 29 29 30 31 32 33 34 35 36 37 38 39 40 41 41 42 42 43 43 43 43 44 45 46 47 47 48 49 50 50 51 52 52 53 52
24 24 23 22 20 20 19 19 18 18 19 20 20 21 22 22 23 24 26 27 28 28 28 30 32 34 35 35 35 34 34 34 34 35 36 37 38 39 40 41 42 43 44 45 46 47 47 47 47 48 49 50 50 51 53 54 54 55 55 56 57 57 57
24 24 24 23 22 22 21 21 21 21 22 22 22 24 25 26 27 29 30 31 30 29 29 31 34 36 38 39 39 39 39 39 39 39 39 40 41 42 44 45 46 47 48 49 50 51 52 53 54 54 54 54 53 54 56 57 58 58 58 58 59 59 58
25 25 25 25 25 24 23 23 23 24 25 25 26 27 28 29 31 32 33 32 31 30 31 33 35 37 38 40 41 42 43 43 43 43 43 45 46 46 47 48 49 50 51 52 54 55 56 58 59 60 60 58 58 58 59 59 59 59 58 58 57 56 56
26 26 26 26 26 25 24 24 25 25 27 28 29 31 31 32 34 34 35 35 34 35 36 38 40 42 43 44 45 45 46 46 46 47 48 50 51 51 52 53 53 54 54 55 57 58 60 61 62 63 63 62 61 61 60 60 60 59 58 57 56 56 56
29 28 28 28 28 27 27 28 29 30 32 33 34 34 35 36 36 36 37 38 39 40 41 43 46 47 48 49 49 49 50 50 51 52 52 53 55 56 56 57 58 58 59 60 61 62 63 64 64 64 64 64 63 62 62 62 62 61 61 60 59 59 59
29 29 30 30 31 32 33 34 35 36 36 37 37 37 38 39 39 40 41 42 43 44 45 46 48 49 51 52 53 53 54 55 55 56 56 56 57 58 59 59 60 61 62 63 64 65 65 66 66 66 66 66 65 65 64 64 63 63 63 63 62 62 62
31 32 33 35 36 37 38 38 38 38 38 39 40 40 41 42 43 44 45 46 47 48 49 50 51 51 52 53 54 54 55 55 55 56 56 56 57 58 59 61 62 63 64 65 66 66 66 67 67 68 68 68 67 66 65 65 64 65 65 65 64 65 65

ECMWFFLT1_500_spd_060.txt.gz
Wind_Speed
23 22 21 21 20 19 19 20 20 21 20 20 19 20 20 20 19 18 18 17 17 16 16 15 15 14 14 14 13 13 13 13 13 12 12 12 12 10 9 9 10 10 9 9 8 8 8 9 9 8 7 7 7 6 6 6 6 7 7 8 8 9 9
25 24 22 22 21 20 19 19 20 20 20 19 19 19 20 19 19 18 18 18 17 17 17 16 16 15 15 14 14 14 14 14 13 12 12 12 12 11 10 10 10 10 10 10 10 9 9 10 9 9 9 8 8 7 7 7 7 7 8 8 9 9 9
23 23 22 23 22 20 19 19 20 20 19 18 18 19 19 19 18 18 18 18 18 17 17 17 17 17 16 15 15 15 15 14 13 12 11 12 12 11 11 12 12 11 11 10 10 10 9 10 10 10 10 9 9 8 8 8 8 8 9 9 9 9 10
24 24 23 23 22 20 19 19 19 19 18 18 18 18 18 18 18 18 18 18 18 18 18 18 18 18 17 16 15 15 15 15 14 13 12 12 12 11 11 12 12 12 12 11 11 10 10 10 11 11 11 11 10 10 9 9 9 9 9 9 9 9 10
25 25 24 24 22 19 18 19 19 18 17 17 17 17 17 18 18 18 18 18 18 18 18 19 19 18 17 17 16 16 16 16 15 13 13 12 12 11 11 11 11 12 12 12 12 12 11 11 11 11 11 11 11 10 9 9 8 8 8 9 9 9 9
24 25 25 23 21 19 19 19 19 17 17 17 16 16 17 18 19 19 19 18 18 18 19 19 19 19 18 17 17 17 16 16 15 14 13 12 11 10 10 10 10 11 11 12 12 12 12 11 11 11 10 10 10 9 8 8 7 7 8 8 9 9 9
24 24 24 22 20 19 19 20 19 18 18 17 16 16 17 18 19 19 19 19 19 19 19 19 19 18 18 18 17 17 16 16 16 15 13 11 9 9 9 10 10 10 10 10 11 11 11 11 10 10 9 9 8 8 8 8 7 7 7 8 8 9 9
23 23 22 21 19 19 20 20 19 19 19 18 17 17 18 19 19 20 20 21 20 19 19 19 19 18 17 17 17 16 16 16 16 15 13 11 9 8 9 9 9 10 10 11 11 11 11 10 10 9 9 8 7 8 8 8 8 8 8 9 9 10 10
20 21 21 19 19 19 20 20 21 21 20 18 18 18 19 19 20 20 21 20 19 19 19 19 19 19 18 17 16 16 15 15 15 15 14 12 10 9 9 10 10 11 11 12 12 11 11 10 10 9 9 8 8 9 9 10 10 10 10 11 11 11 12
18 19 19 19 19 19 20 21 22 22 20 18 18 19 19 19 19 19 19 18 18 18 18 19 19 19 18 17 16 15 14 14 15 15 15 13 11 10 10 11 12 12 13 13 12 12 11 11 11 10 9 10 10 10 11 12 12 12 12 13 13 13 13
16 16 18 19 19 20 20 21 21 20 19 18 18 18 18 17 17 17 17 17 16 17 18 19 19 19 18 17 15 14 13 13 14 14 15 13 12 11 11 12 13 13 13 13 13 12 12 12 11 11 11 11 11 12 13 13 13 13 14 14 14 14 13
14 14 17 19 19 20 20 20 19 19 19 19 19 18 17 16 16 16 16 16 16 17 18 18 18 18 17 16 14 13 12 12 13 13 13 13 12 12 12 13 14 14 14 13 13 12 12 12 12 13 13 12 12 13 13 13 13 13 14 14 14 14 14
13 12 15 18 19 19 19 18 19 20 20 19 19 18 17 16 16 16 16 16 17 17 18 18 18 18 17 15 13 12 11 11 11 12 12 12 12 13 14 14 14 14 14 13 13 12 12 13 14 14 14 13 13 13 13 13 13 14 14 14 15 15 16
16 14 16 17 17 17 17 17 19 20 20 19 20 19 18 17 16 16 17 17 17 18 18 19 19 19 18 16 14 12 11 11 11 11 12 12 13 14 14 15 15 14 14 13 13 13 13 14 15 15 14 14 14 14 13 14 14 14 15 15 16 16 17
19 17 17 16 16 16 15 16 17 18 18 19 20 21 19 17 16 16 16 16 16 17 18 19 19 19 18 17 15 14 13 12 12 11 11 12 13 14 15 15 15 15 15 14 14 14 15 15 15 16 15 15 16 16 16 16 16 16 16 17 17 18 18
20 19 19 17 16 17 16 16 17 18 18 19 20 20 18 16 16 15 14 14 14 15 16 18 19 19 18 17 16 15 15 15 15 14 14 14 14 15 16 17 17 17 16 15 15 16 16 17 16 17 17 17 18 18 18 18 18 19 19 19 20 20 20
22 22 21 19 19 19 17 17 18 19 19 20 21 20 17 16 16 15 14 13 13 14 16 18 19 19 18 17 16 15 15 15 16 16 16 16 16 17 18 18 19 19 18 18 18 18 18 18 18 18 18 19 19 20 20 20 20 20 21 21 22 22 23
24 23 22 21 20 19 18 18 18 20 22 23 23 21 18 17 17 16 16 15 15 15 16 18 19 20 19 18 16 15 15 16 17 17 17 18 18 19 20 20 20 20 20 19 19 19 20 19 19 19 19 20 21 21 21 22 22 22 23 23 24 25 25
23 22 21 21 20 19 18 18 20 22 23 24 24 21 19 19 19 19 18 17 17 17 18 19 20 21 21 20 19 18 17 18 19 19 19 19 19 20 21 21 21 21 21 21 21 21 21 21 20 20 21 22 22 22 22 23 24 24 25 26 27 27 27
22 20 19 20 19 18 18 18 20 22 23 24 24 22 21 21 22 21 20 19 19 19 20 21 22 22 22 22 21 20 19 19 20 20 20 20 20 21 22 22 22 21 21 22 22 22 22 22 22 22 23 23 23 23 24 25 26 27 28 29 30 30 29
24 21 19 19 19 18 18 18 20 21 23 24 24 24 23 23 23 23 22 21 21 21 21 21 21 21 22 21 21 19 19 19 20 20 20 20 21 22 22 22 22 22 22 22 23 23 24 24 24 25 25 25 25 25 26 27 28 29 30 31 32 32 31
25 24 21 21 21 20 19 19 19 19 21 23 25 25 25 25 25 25 24 22 21 21 21 21 20 20 20 20 18 17 18 19 19 20 20 21 21 21 21 22 22 22 22 23 23 24 25 25 26 26 26 26 26 27 28 29 30 31 32 33 33 34 34
26 25 24 24 24 24 23 21 20 20 20 22 24 26 27 28 28 28 27 25 23 21 21 21 21 21 20 19 17 16 17 19 20 20 21 22 22 22 21 22 22 22 23 24 24 25 26 27 27 27 28 28 28 30 31 32 33 33 34 35 35 35 35
25 25 25 25 26 26 24 23 23 23 23 23 24 25 27 28 29 31 31 30 27 24 23 23 22 21 21 19 17 16 17 19 21 22 22 23 23 23 23 23 23 24 24 25 26 27 28 28 29 29 30 31 32 33 34 34 35 35 36 36 37 37 37
25 26 26 26 27 27 25 25 27 27 27 27 26 26 28 29 30 32 32 31 30 27 27 27 24 22 21 20 18 18 19 20 22 24 25 26 26 26 26 26 26 27 28 28 29 30 31 32 32 33 33 34 35 35 36 36 36 36 37 38 38 39 39
26 26 26 26 27 27 27 29 31 32 31 31 30 29 31 33 35 36 34 32 31 30 31 31 27 23 22 21 21 21 22 23 24 26 28 29 29 29 29 29 30 31 31 32 33 34 35 36 36 36 37 37 37 38 38 38 38 38 39 40 40 40 41
27 26 27 27 27 28 30 32 34 35 35 33 30 27 27 29 32 34 35 34 34 34 34 32 27 24 24 24 24 24 24 25 26 27 29 30 31 31 32 32 33 33 34 35 36 37 38 39 39 40 40 40 41 41 41 41 41 41 42 42 42 42 43
26 26 26 28 28 29 30 31 32 31 28 26 24 22 22 22 24 27 30 33 34 32 30 29 26 25 25 25 25 25 25 26 27 28 29 30 31 31 32 33 34 34 35 36 37 38 39 40 41 42 43 43 44 44 44 43 43 44 44 44 44 44 45
24 23 24 25 26 26 27 28 29 27 24 21 21 21 21 22 22 23 25 27 28 27 26 26 25 25 25 26 26 26 26 26 27 28 29 29 30 31 32 33 33 34 35 37 38 39 39 40 41 43 44 45 46 46 46 45 45 46 46 46 47 47 47
24 23 23 24 24 24 25 26 26 25 23 22 22 22 22 22 21 21 22 24 25 25 25 25 25 25 25 26 27 27 28 29 29 29 30 30 31 32 33 33 34 34 36 38 39 40 41 41 42 43 45 46 47 48 48 48 48 49 49 50 50 51 51
24 24 24 24 24 24 25 25 25 24 24 23 23 23 22 22 21 21 23 24 25 25 26 25 25 25 26 27 28 29 31 32 32 32 33 33 34 35 36 36 36 37 38 39 42 43 44 44 45 46 47 48 49 50 50 51 51 52 53 53 54 55 56
24 23 23 23 24 25 26 26 25 24 24 24 23 23 24 24 24 24 24 25 25 25 26 26 27 28 29 30 31 32 33 34 35 36 37 38 38 39 40 41 41 42 43 44 46 47 47 47 47 49 50 51 52 52 53 55 55 56 56 57 58 59 61
24 23 23 24 25 26 26 25 24 24 24 25 25 25 26 27 26 25 25 25 25 25 27 29 30 31 33 34 35 36 36 37 37 38 39 39 39 40 42 44 44 45 47 47 48 48 49 49 49 50 51 52 53 54 56 58 59 59 60 61 62 63 65
25 25 26 26 27 28 28 27 26 25 26 27 28 28 28 28 27 26 25 26 26 28 30 32 34 36 37 37 38 39 38 38 39 40 40 39 40 41 43 46 47 48 49 50 50 50 51 51 52 52 53 54 55 57 58 60 61 62 63 64 65 66 67
28 29 30 30 30 31 30 30 29 29 30 30 30 30 29 29 29 28 29 30 31 33 35 37 38 39 40 41 42 42 40 39 41 43 44 45 46 47 48 50 52 52 52 53 53 54 55 55 56 57 57 58 59 61 62 63 64 65 66 67 68 68 68
31 32 32 33 33 33 32 31 31 31 31 31 31 30 31 31 32 33 34 35 36 37 39 41 42 42 43 43 44 45 44 43 45 47 48 49 51 53 54 55 56 56 56 57 58 59 60 60 61 61 61 62 63 63 64 65 67 68 69 70 71 71 70
32 33 34 34 34 34 34 33 33 33 33 33 33 34 35 36 37 38 39 40 40 41 41 43 44 45 45 45 46 47 47 48 49 51 52 54 55 57 58 58 58 58 59 60 60 60 60 61 61 62 63 64 64 66 67 69 71 72 73 74 75 75 75

ECMWFFLT1_500_spd_063.txt.gz
Wind_Speed
20 19 20 21 21 20 17 16 17 16 16 15 15 15 14 14 15 15 15 16 16 16 15 14 14 14 14 14 13 13 12 13 13 12 12 11 11 12 13 13 12 12 11 11 11 11 10 9 9 9 9 8 8 8 8 9 8 8 8 8 8 7 7
21 20 22 23 22 20 17 17 17 16 16 16 15 14 14 14 15 15 16 16 16 15 14 13 13 13 13 13 13 14 14 13 14 13 12 12 12 12 13 13 13 13 12 11 11 10 10 9 9 9 9 8 8 8 9 9 10 10 9 9 9 8 8
22 22 23 24 22 19 18 18 18 16 16 16 14 14 13 14 15 16 16 16 15 14 13 13 13 13 13 14 14 15 15 14 15 15 14 13 13 13 13 13 13 13 13 12 11 10 9 9 9 9 9 8 8 8 8 9 10 10 10 10 9 9 9
22 22 24 24 21 18 17 18 17 16 15 14 13 13 13 14 15 16 16 15 14 13 13 13 13 13 14 14 15 16 16 16 16 16 15 14 14 13 13 13 13 14 13 13 12 10 10 11 10 9 9 9 9 8 9 9 10 10 10 10 10 9 9
24 24 25 25 20 17 16 16 16 15 15 14 13 13 13 14 15 16 16 15 14 14 13 13 13 14 15 15 16 16 16 16 16 17 17 15 14 14 13 13 13 13 13 12 12 12 12 12 11 10 11 11 10 10 10 9 10 10 10 10 9 9 9
26 27 27 25 20 17 15 15 15 15 14 14 13 12 13 14 15 16 16 15 15 14 14 14 14 15 15 16 16 17 17 17 17 17 18 17 15 14 13 13 13 13 12 11 11 12 13 14 13 12 12 11 11 10 10 10 10 10 10 9 9 9 9
23 25 26 24 21 18 15 14 15 15 14 13 13 13 14 15 15 16 16 15 15 15 15 15 15 15 16 16 16 16 16 17 17 18 18 18 16 14 13 12 12 11 11 11 11 12 13 13 13 13 12 12 11 11 10 10 11 11 10 9 9 10 10
22 24 25 23 21 18 15 15 15 15 14 14 14 15 16 16 16 16 16 16 16 17 17 16 16 17 17 17 16 16 16 17 17 18 18 18 17 15 12 12 13 11 10 11 12 12 13 12 12 12 12 12 12 12 11 11 11 11 11 11 11 11 11
21 24 25 24 21 17 16 16 16 16 16 16 16 16 17 16 16 16 17 17 18 18 18 17 17 17 17 16 16 16 16 17 17 17 17 17 17 15 13 13 13 12 11 11 11 13 13 12 12 13 13 13 13 12 12 11 11 12 12 12 12 12 12
20 23 26 24 21 18 17 17 17 17 17 17 17 18 17 17 17 17 18 18 18 18 18 18 18 17 16 16 16 16 16 16 17 17 16 16 15 15 15 14 13 12 12 12 12 13 14 13 14 14 14 14 13 13 12 12 12 12 12 12 12 12 12
19 22 24 23 19 18 18 19 18 18 17 17 18 19 18 18 18 18 18 19 18 18 18 18 17 16 16 16 16 16 16 16 17 16 15 14 14 15 15 15 13 12 12 13 13 14 15 15 15 15 15 14 13 13 13 13 13 12 12 13 13 12 12
19 19 20 19 16 16 18 19 18 18 18 18 18 18 18 18 18 18 18 18 18 17 17 17 16 16 16 16 16 16 15 16 16 15 14 14 14 15 15 16 15 13 13 13 14 15 16 16 16 15 15 14 14 13 13 14 13 13 13 13 14 14 14
20 18 19 18 15 15 18 19 20 19 19 18 17 18 19 18 18 18 18 17 17 17 17 17 17 16 16 16 15 15 15 15 14 14 14 14 14 15 15 16 15 14 14 14 15 17 17 16 16 16 15 14 15 14 14 14 14 14 14 15 15 16 16
20 20 21 19 15 16 19 20 21 20 19 18 18 19 19 19 19 18 18 17 17 17 18 18 18 17 17 16 16 15 14 13 13 12 13 13 14 15 15 15 15 16 16 16 17 17 17 17 17 16 15 15 15 15 15 15 15 15 15 16 17 17 18
20 21 24 22 16 16 19 21 21 20 19 20 20 21 21 20 19 18 18 17 17 18 19 19 19 19 18 17 17 17 15 14 13 12 12 13 12 13 14 15 16 16 17 17 18 18 18 18 17 17 16 16 16 16 15 15 16 16 17 17 18 19 19
20 21 25 23 16 16 19 20 20 19 19 19 20 21 21 19 19 19 19 18 18 19 19 19 19 19 18 18 18 18 18 16 16 15 14 14 13 13 14 14 15 16 17 18 18 19 19 19 18 18 17 17 17 17 17 16 17 17 18 19 20 20 21
19 20 24 23 18 17 19 19 18 18 18 18 18 20 20 19 19 19 20 20 19 19 17 16 17 17 17 18 18 18 19 18 18 17 17 16 16 16 16 16 17 17 18 19 20 20 20 20 20 19 18 18 19 19 18 18 18 19 20 20 21 22 22
18 20 23 23 21 20 21 20 18 19 18 18 19 20 19 19 20 20 20 20 20 18 16 15 14 15 15 16 18 19 19 19 18 18 17 18 18 18 19 19 19 19 20 21 21 22 22 22 22 21 20 20 21 21 20 20 20 21 22 23 23 24 24
18 21 23 23 22 22 22 22 21 21 20 20 20 21 21 21 21 21 21 21 20 19 18 16 15 15 15 16 17 18 19 20 19 18 18 18 18 19 20 21 21 21 22 22 23 23 23 23 23 22 22 22 22 22 22 22 22 23 24 25 25 26 26
21 23 24 23 22 22 23 23 23 22 21 21 21 22 23 23 23 22 22 22 21 20 19 18 17 17 17 17 18 19 20 21 21 21 20 20 20 21 21 22 22 22 22 23 23 24 24 24 24 23 23 23 23 23 24 24 25 25 26 26 27 28 28
23 23 23 23 22 22 22 22 22 21 21 21 22 23 24 24 23 23 23 23 22 22 21 20 19 19 19 20 20 21 21 22 23 23 24 23 23 23 23 23 24 23 23 24 24 24 24 24 24 24 24 23 23 24 25 26 26 27 28 29 30 30 31
23 23 22 23 23 21 21 21 21 20 20 21 22 23 23 23 23 23 24 24 24 23 22 22 21 21 21 21 21 21 22 23 24 25 26 26 25 25 25 25 24 24 24 24 24 24 24 25 25 24 24 24 24 25 26 27 28 29 30 31 33 33 34
23 24 23 24 24 22 20 21 21 20 20 21 22 22 23 23 23 24 24 24 24 24 24 25 24 22 21 21 21 21 22 24 25 26 27 27 27 27 26 25 24 23 23 23 24 24 25 25 25 25 25 25 26 27 28 29 31 32 32 33 35 36 37
23 23 23 24 25 24 22 22 22 21 21 21 21 21 23 23 23 24 24 24 24 25 26 27 26 24 23 23 22 22 23 24 25 27 28 28 27 26 25 24 24 24 24 24 25 25 26 26 26 26 27 28 29 30 31 32 33 33 34 35 36 37 38
22 23 22 22 23 24 23 23 23 23 23 22 22 22 23 23 23 24 23 23 25 27 28 29 29 29 29 27 26 25 25 25 26 28 28 27 26 25 25 24 24 25 25 25 26 26 27 27 28 29 30 31 31 32 33 35 35 36 37 38 39 40 41
21 22 21 20 22 24 24 24 24 25 25 24 24 24 24 25 25 25 24 24 26 27 29 30 31 31 31 30 29 29 28 27 27 27 27 27 26 26 25 25 25 25 25 26 28 28 28 29 30 31 32 33 34 35 36 37 38 39 40 41 41 42 42
22 23 23 22 23 24 25 25 26 27 27 26 26 26 27 28 28 28 27 28 29 31 32 34 34 34 32 30 31 33 31 28 27 27 27 26 26 26 26 26 26 25 25 26 29 30 29 30 31 33 34 35 37 38 39 40 41 42 43 43 44 44 45
23 23 24 23 23 24 25 26 26 28 28 29 29 29 29 30 31 32 32 32 33 34 34 35 36 37 35 33 34 36 33 30 28 27 26 26 26 27 27 27 28 28 27 28 30 31 31 30 29 31 34 36 38 40 41 42 43 44 45 46 47 47 47
26 26 26 25 25 25 26 27 28 29 31 33 33 32 30 30 30 31 32 32 31 31 30 31 33 35 36 36 36 35 33 31 29 28 27 26 27 28 29 29 30 30 31 32 33 33 34 33 32 32 34 36 38 38 37 39 42 44 46 48 49 50 50
29 28 28 27 27 28 28 29 30 31 32 32 31 30 28 26 25 25 26 27 27 27 27 27 28 30 34 35 32 30 30 30 29 27 27 27 28 29 28 29 30 31 32 34 35 35 36 38 38 38 39 40 40 40 39 40 43 45 47 48 50 51 52
27 26 26 26 27 28 28 28 30 29 28 26 25 25 25 24 24 24 24 25 26 26 26 25 25 27 29 28 27 27 28 28 27 27 27 27 28 29 30 30 32 33 34 35 36 36 37 39 41 42 42 42 42 42 43 45 47 49 50 51 51 52 53
24 25 25 26 27 26 26 26 27 27 26 25 24 24 24 24 24 24 25 26 26 26 25 24 25 26 27 26 25 26 27 27 27 28 29 29 30 31 33 34 35 37 38 39 40 40 41 42 44 45 46 46 46 47 48 49 50 52 53 53 53 53 54
24 25 25 26 26 26 27 28 28 27 26 25 25 24 24 24 24 24 25 25 26 26 25 25 25 26 27 26 26 27 27 28 29 30 31 31 33 34 36 37 38 39 41 43 44 44 44 44 44 45 47 48 49 50 51 52 54 56 56 56 57 57 57
25 26 26 26 26 27 28 29 29 28 26 25 25 25 25 25 25 26 26 26 26 26 27 27 27 27 27 28 28 28 29 29 30 32 34 35 36 37 38 38 39 41 43 44 45 45 45 46 47 48 49 50 51 53 55 57 58 60 61 61 62 62 63
26 27 27 28 27 27 27 27 27 27 26 25 26 26 26 26 26 27 27 27 27 28 28 28 28 28 29 29 29 30 31 31 33 36 38 39 40 41 42 42 42 43 43 44 45 46 49 50 52 53 54 55 57 58 60 61 62 63 63 64 65 67 67
28 29 29 29 29 28 27 27 27 27 27 28 28 28 28 28 29 29 29 29 30 30 30 31 31 31 32 32 33 34 36 37 39 41 42 43 45 46 46 46 47 48 49 50 50 52 53 55 56 58 60 61 62 63 63 64 64 64 65 65 66 67 67
30 31 31 31 31 30 30 30 30 30 30 31 32 32 32 32 33 33 33 33 33 33 34 35 36 36 36 36 37 39 41 42 44 45 45 46 47 49 50 50 51 52 54 56 57 58 59 61 62 63 64 65 66 65 65 65 65 66 67 67 68 69 69

ECMWFFLT1_500_spd_069.txt.gz
Wind_Speed
13 14 14 13 13 13 11 10 11 12 13 14 13 11 10 9 9 11 12 12 12 11 10 10 9 9 9 9 10 11 10 10 9 9 8 8 8 8 9 8 7 7 7 5 5 5 5 6 6 6 6 5 4 4 2 2 1 1 1 1 2 2 2
15 15 13 10 11 12 11 10 11 12 13 15 15 12 11 10 11 13 13 13 13 12 11 11 11 10 10 10 11 11 10 9 9 9 9 8 8 8 9 8 7 7 7 6 6 6 5 5 6 6 5 5 4 3 3 2 2 2 2 3 3 3 1
17 16 13 11 11 13 13 14 14 14 15 15 14 12 11 11 13 15 15 14 13 13 13 12 12 11 11 11 11 11 10 10 9 9 8 8 8 8 9 8 8 8 8 7 7 7 7 6 6 6 5 5 4 3 3 2 2 3 3 4 4 3 3
16 16 15 14 15 16 16 17 18 18 17 16 15 14 12 13 15 16 16 15 14 14 14 13 13 12 11 12 12 11 11 10 10 9 8 8 8 8 9 9 8 8 8 8 8 8 7 7 7 6 6 5 5 4 3 3 3 4 5 5 5 4 5
15 14 15 16 17 18 18 19 19 20 19 18 18 16 14 14 16 17 17 16 16 15 15 14 13 12 12 13 12 12 11 10 10 9 9 9 8 9 9 9 9 9 9 9 8 8 7 7 7 8 7 6 6 6 5 4 4 5 6 5 5 5 5
16 15 15 16 18 20 20 20 20 21 21 20 18 17 16 17 18 19 19 18 17 16 15 14 13 13 14 14 13 13 12 11 10 9 9 9 9 9 10 10 10 10 10 10 9 8 8 9 9 8 8 8 8 7 6 5 5 6 6 5 6 6 6
16 16 17 17 18 19 20 22 22 21 21 20 17 16 17 18 19 20 20 19 18 16 15 14 14 14 15 15 14 13 12 11 10 9 9 9 9 9 10 10 11 11 11 11 10 9 9 10 9 8 8 8 8 7 6 5 6 7 7 6 6 6 7
17 17 17 17 18 18 19 21 23 22 21 20 16 15 17 19 20 21 20 19 18 16 16 15 15 16 16 16 15 14 13 11 10 10 10 10 10 10 10 11 13 12 12 11 11 10 10 11 10 8 8 7 7 6 6 6 7 8 7 7 7 8 8
19 19 18 17 17 17 18 19 21 22 22 20 16 15 18 20 21 22 21 20 18 17 17 16 16 16 17 16 16 15 14 12 12 11 11 11 11 11 11 12 13 13 12 12 12 11 11 11 10 8 7 7 7 7 8 7 8 8 8 7 8 9 8
18 19 19 18 17 17 17 17 19 22 23 20 17 16 19 21 22 22 22 21 20 19 18 17 16 17 17 17 17 16 14 13 13 12 12 12 11 11 11 12 12 13 12 12 12 13 12 11 9 8 8 8 8 9 9 8 8 9 9 9 9 9 8
16 17 18 18 18 18 17 16 17 21 23 21 17 17 20 22 23 24 23 22 20 19 19 18 17 17 17 17 17 16 15 14 14 13 13 13 12 12 12 12 12 13 13 13 13 13 13 11 10 10 9 8 9 9 9 9 9 9 10 10 10 9 8
15 15 16 18 19 18 17 17 18 21 23 22 19 19 21 23 25 25 23 21 20 19 18 18 18 18 17 17 17 16 16 15 15 14 13 13 12 12 12 12 12 13 13 13 13 13 13 12 12 11 9 9 10 10 10 10 11 10 11 11 10 10 9
14 14 15 17 18 18 17 17 19 22 23 22 21 20 22 25 27 25 23 21 20 19 18 18 19 18 18 18 18 17 16 16 15 13 13 13 13 12 12 12 13 14 13 12 12 12 13 13 13 12 11 11 11 12 12 11 11 11 12 12 11 11 11
16 15 15 17 18 18 16 17 19 22 24 23 22 22 23 26 27 26 24 22 20 19 19 19 19 19 19 19 18 17 16 15 14 13 13 13 13 13 13 13 14 14 13 12 12 12 13 14 14 13 13 13 12 12 13 13 12 12 14 14 13 13 13
18 16 15 16 18 17 16 16 18 22 24 23 23 23 24 26 27 26 24 22 21 20 19 19 19 19 19 19 18 16 15 14 14 14 14 14 14 14 14 14 14 14 13 13 13 13 14 15 16 15 15 14 13 13 15 14 14 14 15 16 16 16 16
20 17 15 16 18 17 16 15 17 21 24 24 24 24 24 26 26 26 24 22 21 20 19 19 19 19 20 19 17 16 16 15 15 15 16 16 16 15 14 14 14 13 13 13 13 14 14 15 16 17 16 15 14 15 16 16 16 16 16 17 18 18 18
21 18 15 16 17 17 16 16 18 22 24 24 24 23 24 26 26 26 24 22 20 20 20 19 19 19 19 18 17 16 17 17 17 17 17 18 18 17 16 16 15 14 14 14 14 14 15 15 17 18 17 17 16 16 17 18 19 18 18 19 20 20 20
21 19 17 17 17 16 15 17 20 22 22 22 23 24 25 27 26 26 24 22 21 21 20 19 19 19 19 18 17 17 18 18 18 18 19 19 19 19 19 18 17 17 17 16 17 17 16 17 19 20 19 19 18 18 19 20 21 21 21 21 21 22 22
19 18 18 18 17 15 14 17 21 23 23 22 23 25 26 26 26 25 24 22 22 21 19 19 20 20 19 18 17 17 18 18 18 18 18 18 18 19 19 18 18 18 19 19 20 20 20 20 21 21 22 21 21 22 22 22 22 23 24 24 24 24 24
18 16 17 18 18 16 15 18 21 23 23 22 22 23 24 25 24 24 23 21 21 21 20 20 21 21 20 19 18 18 17 18 18 17 17 16 17 17 18 18 18 19 20 21 21 22 22 22 22 23 23 23 24 26 26 25 24 24 25 26 27 26 26
18 17 16 17 18 17 17 19 21 23 23 22 21 21 22 23 23 22 21 20 21 21 21 21 21 21 21 20 20 19 18 17 17 17 17 16 16 17 18 19 20 20 20 21 22 23 23 24 24 25 25 24 25 27 28 27 26 26 26 26 27 27 27
20 19 16 17 18 18 18 20 22 24 23 21 19 19 20 20 20 20 20 20 21 21 22 22 21 21 21 21 20 20 19 18 18 18 19 18 18 19 20 21 21 21 21 22 23 25 26 26 27 27 27 25 25 26 28 28 28 28 27 27 27 27 27
20 19 18 19 20 18 18 22 25 25 23 21 19 19 19 19 19 19 21 21 21 20 21 21 21 21 21 21 21 21 21 21 20 20 21 21 21 22 22 22 21 21 21 22 24 25 27 27 28 29 29 28 27 27 28 28 29 29 28 28 27 27 27
21 20 20 21 21 19 20 24 25 23 21 20 19 20 20 20 21 22 23 23 22 20 20 21 21 22 22 22 22 23 23 23 23 23 23 23 22 22 21 20 20 20 21 22 24 25 26 27 28 29 30 30 30 28 28 28 29 29 29 29 29 28 28
20 20 21 21 20 19 21 24 21 18 18 18 18 20 22 22 24 25 25 25 23 21 20 20 21 22 22 22 23 24 25 25 25 25 25 24 23 21 20 20 21 21 23 24 25 26 27 27 28 28 29 30 30 29 28 28 28 28 29 29 29 29 30
18 19 21 21 19 19 22 22 18 17 17 18 20 23 25 26 26 25 25 24 22 21 20 20 21 22 23 23 24 25 25 25 25 26 26 25 25 24 24 24 24 24 25 26 27 28 28 29 29 29 29 29 29 29 29 29 29 29 29 29 29 30 31
18 19 20 20 19 21 23 21 19 19 20 22 24 27 27 26 24 23 23 23 21 20 20 20 21 22 23 24 25 26 26 26 25 26 26 27 27 27 27 26 25 25 25 25 26 28 29 30 31 30 30 29 29 30 30 31 30 30 30 30 30 31 33
18 18 19 20 21 23 23 21 20 20 22 24 25 26 25 24 23 23 24 23 21 21 21 22 23 23 24 24 24 25 25 26 26 26 27 28 29 29 29 29 27 25 24 25 28 30 31 31 31 31 30 30 30 30 31 31 31 31 31 32 32 33 34
19 19 20 22 24 24 22 21 20 20 22 23 23 24 24 24 24 23 23 23 23 23 24 24 25 25 26 26 25 25 25 27 28 29 30 31 32 32 32 32 29 27 28 30 32 33 33 32 32 31 30 30 30 30 30 31 31 32 33 34 34 35 36
17 20 22 24 25 24 23 22 20 20 21 22 22 23 25 25 24 23 23 23 23 23 24 25 26 27 28 29 29 29 29 29 30 32 34 35 34 35 34 33 30 29 30 32 32 33 33 32 31 30 29 29 30 29 30 31 32 33 35 35 36 38 39
16 18 21 23 23 23 22 22 21 22 24 25 24 23 25 26 25 23 23 23 22 22 23 24 25 27 29 30 31 31 31 32 32 34 35 35 34 34 33 32 31 31 32 32 32 34 33 31 30 29 28 28 29 30 31 32 34 35 37 38 39 40 42
16 18 20 21 23 23 23 23 25 28 30 30 28 25 25 25 24 24 24 24 24 24 24 24 24 25 26 27 28 29 30 30 31 31 32 32 31 29 28 29 30 31 32 32 33 35 34 32 30 29 28 29 31 32 33 34 35 37 39 41 42 44 45
19 22 24 26 27 27 27 28 30 31 31 31 31 29 27 25 24 24 25 26 27 27 26 25 24 23 24 24 25 26 26 27 27 28 28 28 27 25 25 26 28 29 30 31 33 34 34 32 30 29 30 32 33 34 35 36 38 39 41 43 45 46 48
23 26 28 31 34 34 34 34 34 33 33 33 31 29 27 25 24 24 25 26 26 26 25 24 24 23 23 23 24 25 26 26 26 27 26 25 24 23 24 25 25 26 28 30 31 33 33 32 32 32 33 34 35 36 38 40 42 44 44 46 47 49 50
20 22 25 30 35 37 36 35 34 33 32 30 26 24 24 24 23 24 24 24 24 24 23 24 24 24 24 25 26 26 26 26 26 26 26 25 24 24 25 25 26 27 28 29 30 32 33 34 34 35 35 36 38 40 42 44 45 47 48 50 51 52 53
20 20 21 23 25 25 24 23 24 24 23 22 22 22 23 22 22 22 22 23 23 23 23 24 25 25 25 26 26 26 27 27 27 27 27 27 27 27 27 28 28 29 30 31 32 33 35 36 37 38 39 41 43 44 46 47 48 49 51 52 53 54 54
24 24 24 22 20 17 16 17 18 17 18 19 21 22 22 21 21 22 22 23 23 23 23 24 25 26 27 26 26 27 27 28 29 29 29 29 30 30 30 31 32 32 33 35 36 37 38 40 41 43 45 46 48 49 50 51 52 53 54 54 54 55 56

ECMWFFLT1_500_spd_075.txt.gz
Wind_Speed
19 19 18 18 18 19 18 18 17 17 17 16 16 16 17 18 18 18 18 18 18 18 17 17 18 20 21 21 21 20 18 17 17 17 16 16 16 14 14 14 12 12 11 11 11 12 12 12 12 12 13 13 13 13 13 13 12 12 12 11 11 10 10
15 20 20 20 20 20 19 18 17 17 17 17 18 18 19 20 19 18 18 19 19 18 18 18 20 21 22 22 22 21 19 18 18 18 18 18 17 16 15 14 13 13 12 12 13 13 13 13 13 12 13 13 13 14 14 14 14 13 13 13 12 12 12
14 18 20 20 20 20 18 17 18 18 18 19 20 21 22 22 21 20 20 20 20 19 19 19 21 22 23 23 23 21 20 19 19 20 19 18 18 17 15 14 14 14 14 14 15 15 14 13 13 13 13 13 13 14 15 15 15 14 14 14 13 13 13
15 17 19 19 20 20 19 19 19 20 20 20 21 22 24 24 23 22 21 21 20 19 19 20 21 22 22 23 22 21 21 21 20 20 20 19 18 17 15 15 15 15 15 15 16 15 15 14 14 14 14 14 14 15 15 15 15 15 15 14 14 13 13
16 16 17 19 21 21 20 19 20 21 22 21 21 22 24 25 24 23 22 21 20 19 19 20 20 21 22 23 22 22 21 21 21 21 21 20 19 17 16 16 16 16 16 16 16 16 15 14 14 14 15 15 15 16 16 15 16 16 15 15 14 14 13
17 16 16 17 20 21 21 19 20 21 22 22 22 23 24 25 25 24 23 22 21 19 20 20 21 21 22 22 22 22 21 22 22 22 22 21 20 18 17 17 16 16 17 17 17 17 16 15 14 14 14 15 16 17 17 16 16 16 16 15 15 15 14
19 19 17 17 19 21 21 21 22 23 23 23 22 23 24 24 25 25 24 22 21 20 21 22 22 22 22 22 23 23 22 22 23 23 23 22 20 19 18 17 17 17 17 17 17 17 16 15 14 14 15 16 17 18 18 17 16 16 16 16 16 16 15
21 22 21 19 19 21 21 22 23 24 24 24 23 24 24 25 26 26 25 24 23 22 22 23 22 22 21 22 22 23 23 23 23 23 22 22 21 20 19 18 18 18 18 18 17 16 15 15 15 15 15 17 18 19 19 18 17 17 17 17 17 16 16
24 23 23 20 19 20 21 22 23 24 24 24 24 25 26 26 26 26 26 25 24 24 24 24 23 22 22 22 22 23 23 23 23 22 22 22 21 20 19 18 18 18 18 18 17 16 15 15 16 16 17 18 19 20 20 19 18 18 18 18 18 17 17
26 25 23 20 19 19 20 22 23 23 23 23 24 26 27 27 27 27 27 27 25 25 25 25 24 23 22 22 22 22 22 22 22 22 22 22 21 20 19 19 19 19 18 18 17 16 16 17 17 17 18 19 20 20 20 19 18 18 18 18 18 18 18
27 26 23 21 21 21 22 23 23 23 22 22 25 27 27 28 28 28 28 27 26 27 27 26 24 23 22 22 22 22 22 21 22 22 22 22 21 20 20 19 19 19 19 17 16 16 17 18 19 19 19 20 20 20 19 18 17 18 18 18 19 19 18
27 28 26 26 26 26 26 25 24 25 24 24 27 29 28 29 30 29 29 28 28 28 27 25 23 23 23 22 21 21 21 21 22 22 23 22 22 21 20 20 20 20 19 18 17 17 18 19 19 19 20 20 21 20 19 17 17 18 18 19 19 19 19
26 29 30 30 30 31 31 28 26 25 25 25 27 28 28 28 30 30 29 29 29 28 26 24 22 23 23 22 21 21 21 21 22 23 23 23 22 22 21 21 20 20 19 19 18 18 19 19 19 19 20 20 21 20 19 17 17 18 20 20 20 19 20
26 28 29 31 32 32 32 29 26 26 26 26 27 27 27 27 28 29 28 29 29 28 25 23 22 23 23 21 21 21 21 21 22 23 23 24 23 23 22 21 21 20 20 19 19 18 19 19 19 19 20 20 21 21 19 17 17 19 20 21 21 21 21
25 26 26 28 29 28 28 27 26 26 27 27 28 28 27 27 27 27 27 29 30 28 25 24 23 23 23 22 21 21 21 21 22 22 23 24 24 24 23 22 21 20 20 20 19 18 19 19 19 19 19 20 21 21 19 18 18 19 21 22 22 21 21
22 22 22 23 24 25 26 25 25 26 27 27 27 27 27 27 27 26 27 28 29 28 25 24 23 24 23 23 22 22 21 21 21 22 23 23 24 24 23 22 20 20 20 19 19 19 19 18 18 19 19 20 20 20 20 19 19 20 21 22 22 21 21
20 20 21 22 23 24 26 25 25 25 26 26 25 26 27 27 26 26 28 29 27 25 24 23 23 24 24 24 23 22 22 21 21 22 22 23 23 23 23 22 20 20 20 19 19 18 18 17 17 18 18 19 19 20 20 20 20 20 21 21 21 21 22
21 22 25 25 24 24 26 26 26 26 26 26 25 26 27 26 26 27 30 30 28 26 24 24 24 25 25 25 24 23 22 21 21 21 23 23 23 23 22 21 21 20 20 20 19 18 18 18 18 18 18 19 19 20 20 21 21 21 21 21 22 22 23
23 23 26 27 27 28 27 27 27 28 28 27 26 27 27 27 28 29 30 31 30 29 27 26 26 27 27 26 25 23 21 20 21 22 23 24 23 22 22 21 21 22 22 21 20 20 20 20 19 19 18 18 19 20 20 21 21 21 21 21 22 23 23
24 24 25 27 28 29 28 28 29 31 31 29 27 28 28 27 27 29 31 31 31 30 30 28 27 27 27 26 24 22 21 21 22 23 24 23 22 22 22 22 23 24 23 22 21 21 21 21 20 19 18 19 21 22 22 21 22 22 22 23 24 25 25
22 24 25 26 27 27 28 29 31 32 32 29 28 28 27 26 27 29 31 31 31 31 30 28 26 26 26 25 23 22 22 22 23 23 23 23 22 23 23 24 24 24 23 21 20 20 20 19 19 19 19 21 22 23 23 22 22 23 23 24 25 26 27
22 24 25 25 25 26 27 30 31 32 32 30 28 26 26 27 28 30 32 31 31 29 28 26 26 26 25 25 23 23 23 23 23 23 23 23 23 23 24 24 24 23 21 18 17 18 19 19 19 19 20 22 23 23 23 23 23 24 24 25 26 27 28
22 24 25 25 24 24 27 29 29 31 31 31 29 25 25 27 29 31 33 33 31 28 27 26 25 25 26 25 24 23 24 24 24 24 24 24 23 23 23 23 22 22 22 20 19 20 20 21 21 22 22 23 23 22 22 22 23 23 24 25 26 27 29
22 23 24 25 25 24 25 26 28 30 31 32 30 25 23 26 28 30 32 31 29 28 27 27 26 26 27 25 24 24 25 26 25 24 25 25 24 23 23 23 22 23 23 23 23 23 23 23 24 24 23 22 21 21 21 21 22 22 23 24 26 27 29
23 23 24 26 25 25 24 24 27 30 30 31 32 27 23 25 27 28 29 27 27 28 28 28 28 28 27 26 25 25 26 26 25 24 25 26 25 24 23 24 24 25 25 26 25 25 24 24 25 25 23 23 22 22 22 23 24 25 25 25 26 27 28
24 24 25 25 25 25 24 24 27 30 28 30 34 30 25 25 26 27 27 26 27 29 29 29 29 29 28 27 26 25 25 25 25 25 25 25 25 25 25 26 26 27 27 28 27 26 26 26 27 27 26 26 25 25 26 26 27 27 27 27 27 27 29
23 24 24 24 24 24 24 25 28 30 28 30 36 34 28 26 26 26 27 28 28 29 29 29 30 30 29 26 25 24 24 24 25 26 27 26 26 26 27 27 27 28 29 29 29 28 28 29 30 29 29 29 29 29 28 27 28 28 29 29 29 29 30
23 23 22 22 23 24 24 26 28 28 28 32 38 37 30 26 25 26 28 30 30 28 29 29 29 29 28 26 24 24 24 24 25 27 28 28 28 28 28 28 29 29 29 30 31 30 30 30 30 29 30 30 30 29 29 29 30 31 31 30 30 31 33
23 22 22 20 21 22 24 25 27 28 28 32 38 38 31 26 25 27 30 32 30 28 28 29 29 29 28 27 26 24 25 26 26 26 27 28 28 29 29 29 29 29 30 31 32 32 31 30 30 29 30 30 30 31 32 33 33 33 32 32 33 34 35
19 20 21 19 20 22 23 24 28 31 30 31 36 40 34 27 26 29 33 33 30 29 29 29 29 30 31 30 29 27 26 26 27 26 27 27 28 28 28 29 29 29 30 31 33 33 32 32 31 31 31 32 33 34 34 35 35 35 35 35 36 37 36
17 19 21 21 23 25 25 25 28 32 32 32 38 43 38 30 28 32 34 32 30 30 30 29 29 30 31 32 31 29 27 27 27 27 26 27 28 29 29 30 31 31 30 31 33 33 34 33 33 33 33 32 33 34 35 36 37 37 37 38 39 39 38
20 21 19 22 25 26 27 29 31 33 35 37 42 44 38 32 32 33 32 30 30 30 30 30 30 31 32 32 32 31 29 29 28 27 27 28 29 29 30 30 31 32 32 32 32 33 33 32 32 32 32 32 33 35 36 37 38 38 39 40 39 39 39
21 23 20 18 23 26 29 32 35 37 38 40 43 41 34 31 34 34 31 29 29 29 30 31 32 32 33 33 33 32 31 31 30 28 27 29 28 28 30 31 31 33 35 33 31 32 32 32 31 32 32 32 33 34 35 36 35 35 37 39 39 38 38
22 22 20 16 16 20 24 27 30 33 35 37 40 38 34 33 36 34 30 30 29 30 31 33 33 34 33 33 33 32 31 32 31 29 29 31 31 31 31 33 35 37 37 34 32 32 32 32 32 32 32 32 33 34 35 35 35 34 35 38 38 36 35
23 22 21 19 18 19 20 20 22 26 31 36 40 39 36 35 36 34 32 31 32 33 33 34 34 34 33 33 33 31 30 30 31 31 33 34 34 34 34 35 36 38 38 36 35 35 33 32 32 32 32 32 32 33 33 34 35 35 35 36 35 34 35
23 22 21 22 23 22 20 18 18 19 23 29 34 37 37 37 37 37 36 35 35 36 36 35 34 33 34 35 34 31 31 33 34 35 36 36 35 35 35 34 34 35 36 37 37 36 33 31 31 32 32 33 34 34 35 35 35 35 35 35 36 38 40
25 23 21 22 24 25 23 22 21 19 17 19 23 27 31 35 37 37 38 39 40 41 41 38 35 34 34 35 36 36 36 37 38 38 38 38 37 36 34 33 33 33 34 34 34 33 33 33 34 34 35 36 37 37 37 37 37 37 38 39 41 43 44

ECMWFFLT1_500_spd_078.txt.gz
Wind_Speed
13 17 19 19 19 21 22 21 20 21 21 20 20 21 21 21 21 21 21 21 23 25 25 24 21 20 19 18 17 17 16 16 16 17 17 18 17 15 15 15 15 15 15 16 16 16 15 15 14 13 13 13 13 14 15 14 13 14 14 14 13 12 12
15 18 21 21 21 22 23 23 23 22 22 21 20 20 21 22 22 22 22 23 24 25 25 24 22 20 20 19 19 18 18 18 18 19 19 18 16 16 16 16 16 16 16 17 17 16 16 16 14 14 14 14 14 15 16 15 15 15 15 15 14 13 13
15 17 21 23 23 22 23 24 24 23 23 22 21 21 22 22 23 23 23 24 25 25 25 24 23 22 21 20 20 19 20 20 20 20 19 17 16 16 17 16 16 16 17 18 18 17 17 16 16 16 15 15 16 16 16 16 16 16 16 16 15 14 13
16 17 20 24 26 24 24 25 25 23 23 23 23 23 23 23 23 24 24 24 25 25 25 24 24 23 21 20 20 20 21 22 21 20 19 17 17 17 17 17 16 17 18 19 19 18 17 17 17 17 17 17 17 18 18 18 17 17 17 16 16 15 14
17 19 21 24 27 26 25 27 27 25 24 24 25 24 24 24 24 25 25 25 25 25 24 24 23 22 21 20 20 21 22 22 21 20 19 18 18 18 18 17 17 17 18 19 19 18 18 18 18 18 18 18 18 20 20 19 18 18 17 16 16 15 15
18 21 23 24 26 25 23 23 26 27 26 25 26 26 25 25 26 26 27 27 26 25 24 23 22 22 21 21 21 22 23 22 21 21 20 19 19 18 18 18 18 18 19 19 19 19 19 19 19 18 19 19 20 21 22 20 19 18 17 17 16 16 16
20 22 24 25 26 26 23 21 23 27 28 27 27 26 25 25 26 27 28 28 27 25 24 23 23 23 23 22 22 23 23 22 21 21 20 19 19 18 18 18 19 19 19 19 19 19 19 19 19 19 20 20 21 22 22 21 19 18 17 17 16 16 16
22 23 24 24 24 25 25 24 23 26 29 29 27 24 23 24 25 26 28 28 27 26 25 24 24 24 24 23 22 22 22 22 22 21 21 20 19 19 19 19 19 19 19 19 19 19 19 20 20 20 21 21 22 23 23 21 19 18 18 17 17 17 17
22 23 25 25 24 24 25 26 26 27 29 29 26 23 22 23 25 26 27 27 27 27 26 25 26 25 24 23 22 22 22 22 22 22 21 20 20 20 20 19 19 19 19 19 19 19 20 20 21 21 21 22 22 23 23 22 19 19 19 18 18 18 18
22 23 25 26 26 27 27 27 26 26 27 28 27 25 24 25 25 25 26 26 26 27 27 27 26 26 24 24 23 22 22 22 22 21 21 21 21 21 21 20 20 19 19 19 20 20 20 21 22 22 22 23 23 23 23 21 19 19 20 20 19 19 19
23 24 24 26 28 29 30 29 27 26 26 26 27 26 26 27 27 26 26 27 27 28 28 28 28 27 26 25 24 23 23 22 22 22 21 21 21 21 21 21 21 20 20 20 20 20 21 21 22 22 23 23 23 22 22 21 20 19 20 20 20 20 19
24 25 25 27 28 28 29 29 29 28 27 26 26 26 27 28 29 28 28 29 29 29 29 30 30 29 28 27 25 24 24 23 22 22 21 21 21 21 21 21 21 21 20 20 20 21 21 22 22 23 23 23 22 21 22 21 20 19 19 19 19 19 19
25 27 28 28 27 26 27 28 28 28 27 26 26 27 27 28 28 28 29 29 29 29 30 31 30 30 29 27 25 24 24 23 22 22 20 20 20 21 21 21 22 22 21 21 21 21 21 22 23 23 23 22 21 21 21 21 20 19 19 20 19 18 19
24 26 28 27 26 27 27 28 28 29 28 27 27 27 26 26 27 27 28 28 28 29 30 30 30 30 30 27 25 25 24 23 22 21 20 19 20 20 21 22 22 22 22 22 22 22 22 22 23 23 23 22 21 20 20 20 20 19 20 20 20 19 20
24 23 25 26 27 29 30 30 30 31 31 31 30 28 27 26 26 27 28 28 28 28 29 30 30 30 29 26 25 24 24 24 22 21 20 20 20 20 21 22 23 23 23 23 23 22 22 22 22 22 22 22 20 19 19 19 19 18 20 21 20 20 20
24 22 24 26 27 29 31 31 30 30 31 32 32 30 27 25 25 26 26 26 26 27 28 29 30 30 28 27 26 25 25 24 23 21 21 20 20 21 21 22 23 23 24 23 23 22 22 22 22 22 22 22 20 19 18 18 18 18 19 20 20 20 21
24 23 23 24 24 26 28 28 28 27 29 30 30 29 26 23 23 24 25 25 26 26 27 28 29 29 28 27 27 26 26 25 24 22 21 21 21 21 22 22 23 23 24 24 23 22 22 22 22 21 22 22 20 19 18 18 18 18 19 20 20 20 21
23 24 23 23 24 25 25 27 26 25 25 26 27 26 24 21 20 22 24 26 26 26 26 27 29 29 28 28 28 27 26 25 24 23 22 22 22 22 22 22 23 23 24 24 23 22 22 22 21 21 22 22 20 19 19 18 17 18 18 19 19 20 21
22 25 25 25 26 25 25 26 25 23 23 24 26 25 24 22 20 22 25 27 27 26 25 27 29 28 27 27 27 27 26 25 24 24 23 23 23 23 23 23 23 24 25 25 23 23 22 22 21 22 22 21 20 19 19 18 17 17 18 18 19 20 21
20 23 25 26 26 26 26 26 26 25 25 25 25 25 25 23 22 22 24 27 28 27 26 28 30 28 27 27 27 27 26 26 25 25 25 24 24 24 23 23 23 24 25 25 24 24 23 22 22 22 22 21 20 20 20 19 18 18 19 19 20 21 22
19 21 22 22 22 25 27 27 27 28 27 27 26 26 25 25 24 23 24 26 28 28 28 29 30 29 28 29 28 27 27 27 27 27 27 25 24 23 23 23 23 24 25 25 25 24 24 24 23 22 22 21 21 21 21 21 21 21 21 21 22 22 23
20 21 22 21 21 24 26 27 27 28 28 28 28 28 27 27 27 25 25 26 28 29 30 30 30 30 31 32 31 28 28 28 28 28 28 26 24 23 23 23 24 24 25 25 24 23 24 24 24 23 22 22 22 22 22 22 22 22 23 23 23 24 25
22 22 23 22 22 23 23 25 27 28 28 28 28 29 29 29 28 27 26 27 30 31 31 30 30 30 32 32 30 27 28 29 29 29 28 25 24 23 23 24 24 25 25 24 24 23 23 23 22 22 22 22 23 23 23 23 24 24 25 25 25 25 26
23 23 24 24 24 24 24 24 25 26 27 27 28 29 30 29 28 27 27 28 30 31 30 29 29 29 30 28 27 27 29 29 29 29 27 25 24 23 23 24 25 25 25 24 24 23 22 22 22 22 22 22 23 23 23 24 25 25 25 25 24 25 25
23 23 24 25 25 26 25 24 24 25 26 26 27 28 30 29 27 29 29 29 30 31 29 28 29 29 29 28 27 28 30 30 29 28 27 25 24 24 24 25 25 25 26 25 24 24 24 24 24 24 23 22 22 22 23 24 25 25 25 24 25 25 26
22 23 24 25 26 26 26 26 25 26 26 26 26 28 31 30 29 30 30 29 29 29 28 28 28 29 30 29 29 30 31 30 29 28 27 26 26 26 26 25 25 26 26 27 26 25 25 25 25 25 24 24 23 24 24 25 25 25 26 27 27 28 28
23 23 24 25 25 26 26 27 26 27 27 26 26 28 30 31 30 31 32 30 27 27 28 29 29 30 31 30 29 31 31 30 29 28 27 27 27 28 27 26 26 26 26 27 27 27 27 26 26 26 26 26 26 26 26 27 27 28 29 29 29 29 30
24 23 23 24 24 23 24 25 26 27 26 26 26 27 29 31 32 34 35 32 27 25 27 30 30 30 30 30 30 31 32 31 30 28 27 27 27 28 28 27 26 26 26 26 28 28 28 28 29 29 28 28 29 28 28 28 28 28 28 29 29 30 31
25 23 22 23 23 22 23 23 24 25 25 26 26 27 30 33 33 35 38 35 28 25 27 30 30 29 28 29 31 32 33 32 30 28 27 26 26 27 27 27 28 28 27 28 29 29 29 30 30 30 30 30 31 31 30 29 29 28 29 29 30 32 34
25 23 22 23 23 22 20 20 21 22 23 25 26 28 31 33 33 35 40 39 29 24 27 31 31 29 29 30 32 33 34 33 30 28 27 27 27 27 27 28 29 30 30 30 31 31 30 31 31 32 32 32 32 31 31 31 31 31 32 32 33 35 37
25 24 23 23 23 21 19 20 22 23 23 25 28 30 32 32 32 34 40 41 34 27 27 31 32 31 31 32 33 33 34 33 31 30 29 29 29 29 28 29 30 31 32 32 32 32 31 32 32 32 32 31 31 31 32 33 35 35 35 34 35 38 40
25 24 23 24 23 22 23 23 24 26 29 30 31 32 34 34 33 34 38 41 38 33 30 32 33 33 33 34 33 33 34 34 33 32 32 32 31 30 30 30 30 31 31 32 32 32 32 32 33 34 33 32 32 33 34 36 37 37 36 36 38 39 39
25 25 24 25 24 23 24 25 23 23 29 33 32 33 38 40 39 39 40 43 43 38 33 31 33 35 35 35 34 34 34 33 33 34 33 32 31 31 31 31 31 32 32 33 33 33 33 33 34 34 34 34 35 35 35 36 37 37 37 38 39 39 38
26 26 25 25 25 23 24 25 20 17 18 22 27 33 39 42 43 43 44 44 44 41 34 30 32 35 36 35 34 33 32 33 33 33 32 31 31 32 31 32 33 33 33 32 32 33 33 33 34 35 36 37 37 36 36 36 36 36 37 38 38 38 37
28 28 27 26 26 24 24 24 21 16 14 13 17 24 32 39 42 42 42 40 39 37 34 31 31 34 34 33 33 32 32 33 33 33 32 32 32 33 33 33 33 33 32 33 33 35 35 34 36 39 39 39 38 37 36 37 37 37 37 37 37 36 36
30 30 29 28 27 26 24 24 23 20 18 16 15 15 20 30 38 40 41 39 36 33 32 32 32 33 33 33 34 34 35 34 34 34 34 34 33 33 33 33 34 34 35 35 36 38 38 38 40 42 41 39 38 39 39 39 37 37 36 36 36 37 38
32 32 32 31 28 26 24 23 23 22 21 21 19 17 17 21 29 35 38 39 38 36 35 33 33 34 34 35 36 37 37 36 34 35 37 37 36 35 34 35 37 37 38 39 40 41 42 42 43 43 41 39 39 39 38 37 36 36 36 37 38 40 41

ECMWFFLT1_500_spd_084.txt.gz
Wind_Speed
25 24 25 26 26 27 27 27 28 28 27 27 29 28 26 25 24 24 24 24 24 25 24 23 21 19 17 18 18 19 21 23 22 20 19 19 19 19 18 18 19 18 18 16 14 15 15 15 15 15 15 16 16 15 14 12 12 12 12 12 12 12 12
28 27 26 26 27 27 25 26 28 27 27 28 29 28 25 25 24 23 23 23 24 25 24 24 23 21 20 20 22 23 23 23 22 20 20 20 19 19 19 19 19 18 17 15 15 16 16 16 16 16 16 16 16 15 14 13 13 13 12 12 12 12 12
28 28 27 27 27 25 23 26 29 28 28 29 29 27 25 24 23 23 23 23 23 24 24 25 24 23 23 24 24 24 24 23 21 21 21 20 19 19 20 19 19 18 17 15 16 17 17 17 17 16 16 16 16 15 14 14 13 13 13 13 12 12 13
28 28 27 26 26 24 23 26 28 27 28 28 27 26 25 24 23 23 23 22 23 24 25 25 25 25 25 25 24 25 27 27 24 22 22 21 20 20 20 20 19 18 17 16 18 18 18 18 18 17 16 16 16 16 15 14 14 14 14 14 13 13 13
29 29 28 27 26 25 24 24 25 25 27 27 26 25 25 24 23 23 23 23 23 24 25 26 25 25 25 23 23 25 27 27 25 24 23 22 21 21 21 20 19 18 17 18 19 19 19 19 18 17 17 16 16 16 15 14 15 15 15 15 14 13 14
32 32 30 28 27 26 25 24 22 22 23 25 26 25 24 24 24 23 23 23 23 23 24 25 25 25 24 23 23 24 25 26 25 24 23 22 22 22 22 21 21 19 19 20 21 20 19 19 18 18 17 16 16 16 15 15 15 15 15 15 15 14 14
33 34 32 30 29 28 27 27 25 22 21 23 25 25 24 25 26 25 23 24 24 23 24 25 25 25 24 23 23 24 24 24 24 24 23 23 23 23 23 23 21 20 20 22 22 21 20 19 19 18 17 16 16 16 15 15 15 15 16 16 15 15 14
33 34 33 31 31 30 29 29 29 27 24 23 23 25 26 26 27 26 26 26 26 25 26 26 26 25 24 23 23 24 24 24 24 24 23 23 24 23 23 23 21 21 22 23 23 22 21 20 19 18 17 17 17 17 16 16 16 16 16 17 16 15 14
34 34 33 31 31 32 30 29 30 29 28 27 25 25 25 26 27 27 27 27 26 26 26 26 26 24 23 23 23 23 24 24 24 23 23 23 23 24 23 22 21 22 23 23 23 23 22 21 20 18 17 17 18 18 18 17 17 17 17 17 17 16 15
35 35 33 30 30 31 31 30 29 28 27 29 28 26 24 25 28 28 27 27 28 27 27 26 25 23 22 23 24 24 24 24 23 23 23 23 23 24 23 22 21 23 24 23 22 21 21 21 20 19 18 18 19 19 19 18 18 18 18 18 17 17 16
35 34 34 32 30 31 32 32 32 28 26 29 30 28 25 24 26 27 27 26 27 28 27 26 25 23 23 25 26 26 25 24 24 24 23 23 23 24 23 21 22 24 25 24 21 21 21 21 20 19 19 19 20 20 20 19 19 18 18 18 18 17 16
34 34 34 34 34 33 32 33 34 31 29 30 31 29 26 25 25 25 25 25 26 27 27 27 26 25 25 27 27 27 27 27 26 26 25 24 24 23 23 22 22 24 25 24 24 24 23 22 21 20 20 20 21 21 21 21 20 20 19 19 18 18 17
34 34 34 36 36 36 34 34 36 34 32 32 32 31 28 26 24 25 25 25 26 27 28 27 27 28 29 29 29 29 29 29 28 27 26 25 24 23 23 23 23 25 25 25 25 25 23 22 21 20 20 21 22 22 22 22 21 21 20 20 19 19 18
33 34 35 36 37 37 36 35 36 36 34 33 33 32 30 27 25 25 25 26 27 28 28 29 30 31 31 29 30 31 30 29 28 28 27 27 25 24 24 25 25 26 26 24 24 24 23 23 22 21 21 22 22 22 22 22 22 22 21 20 20 20 19
32 33 35 35 35 35 34 34 34 34 33 33 33 32 31 28 27 27 28 27 27 28 28 28 29 30 30 30 31 31 30 29 29 28 28 27 26 25 24 25 26 25 25 24 24 24 24 23 23 22 22 22 23 23 23 23 23 22 22 21 20 20 20
29 31 32 32 32 31 30 30 31 32 32 32 32 32 31 29 28 28 29 28 26 26 27 27 28 28 30 31 31 31 30 30 30 30 30 29 28 26 25 25 25 26 26 25 25 25 25 25 25 24 23 23 23 24 24 24 24 23 23 22 21 21 20
27 27 26 25 26 26 26 27 28 30 32 32 32 31 31 30 28 28 28 28 27 27 26 27 28 29 31 32 32 31 31 31 31 31 31 30 28 27 25 25 26 27 27 27 27 26 26 27 27 26 24 24 24 25 25 25 24 24 23 23 22 21 20
25 25 21 19 21 23 25 26 26 28 29 30 31 31 30 31 30 28 29 29 29 27 26 27 29 30 31 32 32 31 31 31 32 32 33 31 29 28 27 26 26 27 27 27 27 27 28 28 28 27 26 25 25 26 25 25 24 24 23 23 22 22 21
23 23 20 14 16 20 23 24 24 24 26 27 29 29 29 30 31 30 30 30 29 29 28 28 28 29 32 33 33 31 30 30 31 32 32 31 29 29 29 28 27 27 27 28 28 28 28 29 29 29 27 26 27 27 25 24 24 24 24 23 22 21 21
23 22 21 17 12 11 14 16 17 19 21 23 25 26 26 28 29 30 30 31 30 30 31 31 30 29 31 34 34 32 31 30 30 31 31 31 30 30 30 28 28 27 27 28 29 29 29 30 30 30 29 27 27 27 25 24 24 25 25 24 23 22 22
23 22 22 20 16 12 11 11 12 14 16 18 21 23 24 26 27 29 31 32 32 31 32 32 32 30 30 32 32 31 32 32 32 33 34 34 33 32 30 29 28 28 28 29 29 29 29 29 30 29 27 26 27 27 26 26 25 25 26 26 25 25 24
23 22 21 21 20 18 15 14 14 14 15 16 18 21 23 26 27 28 30 32 32 31 30 30 31 31 31 31 31 31 33 34 35 35 36 35 34 32 30 29 28 27 28 29 29 29 28 29 29 27 24 25 27 27 25 25 25 25 26 27 27 26 26
21 21 21 21 21 20 19 18 17 17 17 17 19 21 23 26 27 27 29 31 30 29 28 28 30 31 32 32 31 31 33 35 35 35 35 34 33 31 30 29 27 27 29 30 29 29 29 28 28 27 25 27 29 29 26 26 26 26 26 28 27 27 27
20 20 20 21 21 21 21 20 19 19 19 19 20 22 24 25 26 28 29 30 30 30 30 30 30 31 32 33 32 31 32 33 34 34 34 33 32 31 31 29 28 28 30 31 30 30 30 30 29 29 29 30 31 32 30 29 27 25 26 28 28 28 28
20 19 19 20 21 22 22 22 21 21 21 21 22 23 23 24 26 29 30 29 30 32 32 33 33 32 33 35 34 33 32 32 32 33 33 33 34 34 33 32 32 33 33 33 32 33 32 31 30 30 30 30 31 32 32 30 28 25 26 29 29 28 28
21 21 20 19 20 21 22 23 23 22 23 23 24 24 24 24 26 28 29 30 31 32 33 34 34 34 36 37 36 34 33 32 32 32 33 35 37 37 34 33 34 35 36 35 34 34 34 33 31 30 30 29 29 29 30 31 30 28 28 31 31 28 28
24 23 23 21 20 20 21 23 23 24 24 25 25 25 25 25 26 26 27 30 32 33 32 33 34 34 36 39 38 36 34 33 33 33 34 36 38 39 37 35 33 34 34 34 34 34 34 33 31 30 30 30 29 29 30 30 30 29 30 32 31 29 28
26 26 25 24 23 22 21 22 23 24 25 25 26 25 25 25 26 26 26 28 32 33 33 33 33 34 37 39 38 37 35 33 33 34 34 36 37 38 38 37 34 32 32 33 34 34 34 34 32 30 31 30 29 29 30 31 31 31 31 32 31 31 31
26 26 26 27 26 25 23 22 22 23 24 25 25 25 25 24 25 26 26 27 30 32 33 32 32 34 38 39 38 39 38 35 34 34 34 35 37 38 39 37 34 32 32 34 35 35 34 33 32 31 31 29 26 27 31 32 31 32 32 33 33 33 33
26 26 26 27 27 27 27 26 24 24 24 25 25 25 25 25 24 25 26 28 29 31 32 32 32 35 39 40 40 43 41 37 35 35 34 34 36 38 39 38 35 33 33 34 35 34 33 33 32 32 32 30 29 32 35 34 32 32 33 34 35 35 34
28 27 26 27 27 28 29 29 28 26 26 26 26 26 26 26 26 26 26 27 28 29 30 30 31 35 39 40 43 45 43 39 37 36 35 35 36 37 39 39 37 34 34 34 34 34 33 33 32 33 33 32 31 32 34 33 33 33 33 34 34 34 33
30 29 28 28 28 29 30 31 31 30 29 28 28 28 27 26 27 27 27 26 26 28 30 31 33 38 40 41 44 47 45 41 37 36 36 36 36 37 38 37 37 36 35 35 35 34 34 33 33 33 33 31 30 31 33 33 34 34 34 35 35 35 35
32 32 31 31 30 30 31 32 33 33 33 32 31 31 30 28 28 28 28 27 26 28 30 31 33 37 40 41 42 45 45 42 38 37 37 37 37 36 36 37 38 37 36 35 35 35 35 34 34 34 32 31 31 33 34 35 36 37 37 38 39 39 38
34 34 34 33 33 31 31 32 33 34 35 35 34 33 32 31 31 30 30 29 28 29 30 30 31 33 38 42 44 43 43 43 42 40 39 39 39 37 36 37 37 36 35 36 37 38 37 35 34 34 34 34 35 37 37 38 40 41 41 42 42 41 41
36 35 34 35 35 34 33 32 33 34 34 35 36 35 34 33 32 32 31 30 29 29 31 32 32 33 35 41 45 45 46 47 47 45 43 41 39 36 35 36 36 34 36 38 39 39 38 35 34 36 38 39 38 38 39 40 41 42 43 43 42 42 42
40 39 37 36 36 36 36 34 34 34 34 35 36 36 35 34 33 33 33 32 30 30 31 32 32 32 32 37 42 44 47 47 46 45 44 40 37 34 33 34 33 32 33 36 37 38 38 37 37 39 41 41 40 40 40 40 40 41 41 41 41 41 41
45 44 42 40 39 38 38 37 36 35 35 35 36 36 36 35 33 33 33 33 32 31 31 31 30 30 30 33 37 40 43 43 42 42 40 37 34 34 35 34 33 32 32 32 33 35 36 37 39 40 40 39 40 40 39 39 40 40 41 40 40 40 40

ECMWFFLT1_500_spd_087.txt.gz
Wind_Speed
29 30 32 34 34 33 33 33 34 33 32 31 31 31 32 32 29 28 29 28 26 25 24 24 24 24 24 23 23 23 23 25 25 24 24 22 19 19 19 19 19 18 18 18 16 15 15 14 14 14 14 15 16 16 16 14 13 13 13 12 11 11 10
30 31 32 34 34 33 33 34 34 34 33 33 32 31 32 32 29 27 27 27 26 25 25 25 24 24 24 23 22 22 22 24 24 24 23 20 19 19 19 19 19 19 19 19 17 16 16 15 15 15 15 16 17 17 17 15 14 14 14 13 12 11 11
30 31 32 34 35 34 33 33 34 34 34 33 32 31 30 28 27 27 27 26 26 25 25 24 23 24 24 23 22 20 20 21 20 21 20 19 20 20 19 19 20 19 19 19 18 18 17 17 16 16 16 17 17 18 17 16 15 14 14 14 14 13 11
30 32 33 34 35 35 33 32 33 33 34 33 32 31 28 26 25 26 26 25 26 25 24 23 22 23 23 23 23 21 20 20 19 20 20 20 20 20 19 19 19 19 19 19 19 19 18 18 17 17 17 17 18 18 18 17 16 15 15 15 15 14 13
31 32 33 34 35 35 33 31 31 31 33 33 31 29 28 28 27 26 27 26 25 25 24 22 22 22 22 23 23 21 20 21 21 22 22 22 21 20 20 19 19 19 20 20 20 20 19 18 17 17 18 18 18 19 19 18 17 16 16 17 16 15 14
32 33 34 35 36 35 33 31 31 31 32 33 30 26 24 27 28 27 26 26 25 24 23 22 22 22 22 23 23 21 21 22 23 24 23 24 23 21 21 20 20 20 21 21 20 20 20 19 18 18 19 19 19 19 19 18 17 16 17 17 17 17 16
34 34 36 37 37 36 35 32 30 30 33 33 32 29 25 23 26 27 27 26 25 24 23 22 22 23 23 24 24 23 22 23 24 23 23 25 25 22 22 21 21 21 21 21 21 21 21 19 18 18 19 20 20 20 20 19 18 17 18 18 18 18 17
35 36 37 37 37 37 36 34 31 29 31 33 32 32 30 26 24 25 27 27 25 24 24 23 23 24 24 25 25 23 22 23 23 23 23 25 25 23 23 22 21 21 21 21 22 22 21 19 19 19 20 20 20 20 20 20 19 19 19 18 18 18 18
36 38 38 38 36 36 36 35 33 30 29 31 32 31 31 30 27 24 25 26 25 26 26 25 25 25 24 26 26 24 23 23 24 24 23 24 24 23 23 22 21 21 21 22 23 22 20 19 20 21 21 21 20 20 21 21 20 20 19 19 18 19 19
37 38 38 38 36 35 35 33 33 33 30 30 32 30 29 29 29 27 25 26 25 25 26 28 28 27 27 26 26 26 25 24 25 24 24 25 25 24 24 22 21 21 22 22 23 22 20 19 20 22 22 22 21 21 21 22 22 21 20 20 19 20 20
36 37 37 38 36 35 35 34 34 34 31 29 30 30 28 27 27 28 28 28 27 25 27 30 30 29 28 26 27 28 27 26 26 24 24 25 25 24 24 22 21 21 22 22 22 21 19 20 21 21 21 21 20 21 22 22 22 22 21 21 20 20 20
35 35 36 37 37 36 36 35 34 33 31 30 30 28 27 26 26 27 29 29 28 26 27 29 30 29 27 26 28 28 27 26 26 25 24 25 25 25 24 23 22 22 23 22 22 22 20 21 21 21 21 21 20 21 22 23 22 22 22 21 21 21 21
33 34 35 37 38 38 37 36 34 34 32 30 28 27 27 27 26 26 28 29 28 26 27 28 29 28 27 27 29 29 27 27 26 25 25 25 25 25 25 24 24 24 24 23 23 22 21 21 22 22 22 22 21 21 22 23 23 23 22 21 21 22 21
32 33 35 37 38 38 37 35 33 34 33 28 26 26 27 27 27 27 28 30 29 27 27 28 28 28 27 28 29 29 28 27 26 26 26 26 27 28 27 26 26 26 25 24 24 23 22 22 23 23 23 22 21 22 23 24 24 24 24 23 23 23 23
30 32 33 35 36 35 34 33 32 32 32 29 28 28 27 26 28 28 29 30 31 29 28 29 29 28 28 29 29 29 29 29 28 28 28 27 28 29 28 27 27 27 26 25 25 24 23 24 24 24 23 22 21 22 24 25 26 26 25 25 25 24 23
28 30 31 32 33 32 31 31 30 29 30 29 30 30 27 26 27 30 30 30 33 33 31 29 30 30 29 29 29 29 30 30 29 29 29 29 29 30 28 28 28 28 27 26 25 25 25 24 24 24 23 21 21 23 24 25 26 26 26 26 26 25 25
27 27 27 28 30 30 29 28 27 27 27 26 28 30 28 26 26 29 30 30 30 31 32 31 31 31 30 29 29 30 29 29 30 31 30 29 29 29 28 28 29 29 28 27 26 26 25 24 25 25 23 22 23 24 25 26 27 27 27 28 27 27 26
26 26 25 25 25 26 27 27 25 24 24 24 26 27 27 26 27 28 30 31 30 29 29 31 31 31 31 29 29 30 30 29 30 30 30 29 28 29 29 29 30 31 30 29 28 27 25 25 26 25 24 24 24 25 26 27 28 29 28 28 28 27 27
26 26 25 23 22 23 24 24 23 20 20 22 24 26 27 27 28 28 28 31 31 28 27 28 29 30 31 29 29 30 31 30 30 29 29 28 27 29 31 31 32 33 31 30 28 26 25 25 25 24 25 27 27 27 28 28 29 29 28 28 28 27 28
26 26 25 24 22 21 21 22 21 18 15 15 18 21 24 25 25 27 29 30 31 30 27 27 29 31 32 30 30 32 32 31 30 30 30 28 28 31 32 32 33 33 32 30 28 27 26 25 25 25 26 27 27 28 29 28 29 30 28 28 28 28 28
25 25 25 25 23 22 21 20 20 19 17 14 13 14 18 20 19 21 26 29 31 32 30 28 27 29 32 32 31 32 33 31 30 32 33 31 32 33 32 32 33 33 32 29 27 27 27 25 24 26 27 28 27 28 29 28 28 30 29 28 28 27 27
24 24 24 24 23 22 22 21 20 20 19 17 16 15 15 16 15 16 20 25 29 32 32 31 28 28 30 32 33 34 34 32 31 32 35 35 34 33 32 32 32 31 30 27 27 29 28 27 28 30 31 31 29 29 29 27 26 27 27 26 25 26 27
23 23 23 24 23 22 22 22 22 21 20 19 19 18 17 17 16 16 17 21 26 29 31 31 30 29 30 31 33 34 35 35 33 31 33 35 34 32 32 33 33 31 28 28 31 32 30 30 31 31 31 30 27 27 27 26 25 24 23 23 23 24 25
22 22 23 24 24 23 22 22 22 22 21 21 21 20 20 19 18 18 18 20 23 26 28 29 29 30 31 31 32 33 33 35 34 32 33 34 33 32 32 33 34 33 31 31 34 34 32 31 31 31 31 30 28 28 28 26 25 23 22 24 25 25 26
23 24 24 25 25 25 24 22 22 22 23 23 23 23 22 22 21 21 21 22 23 24 27 28 27 29 30 31 32 32 32 33 34 34 33 31 30 31 32 33 34 34 34 33 34 34 33 32 32 32 33 32 31 32 31 28 26 25 25 27 28 26 26
27 27 27 27 27 27 26 24 23 23 23 24 24 24 24 24 24 24 24 25 24 25 27 27 26 28 29 30 31 32 32 32 33 33 32 32 33 34 34 35 36 35 35 35 34 34 34 33 33 34 34 34 34 33 31 29 27 27 27 28 28 25 23
30 30 30 29 29 28 28 26 25 24 24 25 25 25 25 25 25 25 25 26 26 26 28 27 27 28 28 28 29 31 33 33 33 33 33 34 37 37 35 36 36 37 37 37 36 35 34 34 35 36 36 36 35 33 32 30 28 28 28 28 28 25 24
31 31 31 30 30 30 29 28 27 26 26 26 26 26 26 26 26 26 26 27 27 27 28 28 28 28 28 28 28 29 32 35 35 36 35 35 36 35 35 36 36 37 37 38 39 38 36 35 36 37 38 38 36 35 33 32 31 32 31 30 29 27 27
31 31 31 31 30 30 30 30 29 29 28 28 28 28 28 27 27 27 27 27 27 27 27 28 29 29 28 28 28 28 31 35 36 36 36 38 38 37 37 36 34 34 35 36 39 40 40 38 37 36 36 38 37 35 32 32 34 34 33 32 31 29 29
33 32 32 32 32 31 31 31 31 31 30 29 29 29 29 29 28 28 28 28 28 28 28 27 29 30 29 28 28 29 31 34 35 34 36 40 42 42 40 37 33 34 37 38 40 42 42 42 40 37 35 36 37 35 33 34 36 36 33 31 30 30 32
36 36 35 34 34 34 33 33 33 33 33 32 31 30 30 30 30 29 29 29 28 29 29 29 29 30 30 29 28 29 31 33 34 35 38 42 43 42 41 40 39 39 40 40 43 44 43 42 41 38 35 36 38 37 36 38 38 36 34 31 29 31 34
39 38 37 36 36 36 36 36 35 35 35 35 35 34 32 32 31 31 31 31 31 30 30 30 31 31 30 30 28 29 31 34 36 38 40 43 45 44 41 41 42 42 42 41 42 42 42 42 41 38 36 37 38 37 37 38 37 36 35 34 33 36 39
40 39 39 38 37 36 36 37 37 37 37 37 37 37 36 35 34 33 33 34 33 32 31 31 32 32 32 32 31 30 30 31 33 37 40 44 46 46 45 45 44 44 44 42 41 41 41 41 40 39 38 39 38 38 38 38 37 37 37 37 38 40 41
42 42 41 40 38 37 37 37 37 37 38 38 38 38 38 38 37 36 35 34 34 33 32 31 32 33 33 34 34 33 31 29 28 31 38 44 47 47 47 46 46 45 44 43 41 41 41 41 41 40 40 39 37 38 39 39 39 39 39 39 39 41 41
46 46 45 44 43 42 41 40 39 38 38 38 38 39 39 39 39 38 37 35 34 34 33 32 32 32 33 33 32 32 32 31 29 29 33 40 48 50 48 47 46 44 43 43 42 41 40 40 41 41 41 40 39 39 40 41 41 40 40 40 40 41 41
49 50 50 49 48 48 47 45 44 42 41 40 40 39 39 39 39 39 39 38 36 35 35 33 32 32 32 31 30 30 30 30 29 29 31 35 43 48 48 48 47 45 44 43 42 40 40 40 41 42 42 42 41 41 41 41 41 41 40 40 40 40 41
51 52 53 52 52 51 50 48 47 45 44 43 42 41 40 40 40 40 40 39 38 37 36 35 34 33 32 30 29 29 30 29 28 28 28 31 39 46 47 46 47 46 44 41 37 36 38 41 42 42 43 43 42 41 42 43 42 41 41 41 41 42 43